NOZ1316 ENBR-EGKK

Flight info

Callsign NOZ1316
Flight time N/A
Altitude 37000
Route TUXIL4D TUXIL DCT ZOL DCT ATNAK/N0460F380 DCT TIPAN DCT WECOW DCT BINBO DCT AKOKO N866 BUKUT P7 BARMI BARMI1G
Aircraft B738/M-SDE2E3FGHIRWXY/LB1

Departure

Time 2026-04-27 16:36
Airport Bergen Airport, Flesland (ENBR)

Arrival

Time N/A
Airport London Gatwick Airport (EGKK)
Time Latitude Longitude Altitude Speed Heading
2026-04-27 16:17 60.28897 5.22550 173 ft 0 kts 83°
2026-04-27 16:26 60.28896 5.22535 173 ft 2 kts 83°
2026-04-27 16:27 60.28892 5.22475 173 ft 2 kts 83°
2026-04-27 16:27 60.28888 5.22407 173 ft 1 kts 81°
2026-04-27 16:28 60.28888 5.22398 173 ft 0 kts 81°
2026-04-27 16:29 60.28886 5.22410 173 ft 0 kts 131°
2026-04-27 16:30 60.28824 5.22431 173 ft 7 kts 173°
2026-04-27 16:30 60.28752 5.22456 173 ft 3 kts 169°
2026-04-27 16:31 60.28656 5.22371 173 ft 6 kts 183°
2026-04-27 16:31 60.28468 5.22430 173 ft 23 kts 171°
2026-04-27 16:32 60.28164 5.22530 173 ft 20 kts 171°
2026-04-27 16:32 60.28064 5.22474 173 ft 2 kts 246°
2026-04-27 16:33 60.28059 5.22445 173 ft 0 kts 253°
2026-04-27 16:34 60.28054 5.22389 173 ft 10 kts 259°
2026-04-27 16:34 60.28095 5.22235 173 ft 15 kts 346°
2026-04-27 16:35 60.28133 5.22221 173 ft 0 kts 349°
2026-04-27 16:35 60.28141 5.22218 173 ft 8 kts 349°
2026-04-27 16:36 60.28542 5.22083 174 ft 106 kts 350°
2026-04-27 16:36 60.29544 5.21742 284 ft 175 kts 350°
2026-04-27 16:36 60.30698 5.21356 907 ft 174 kts 351°
2026-04-27 16:36 60.32033 5.20908 1378 ft 212 kts 350°
2026-04-27 16:37 60.33506 5.20412 1867 ft 217 kts 350°
2026-04-27 16:37 60.34912 5.19726 2818 ft 202 kts 337°
2026-04-27 16:37 60.36118 5.19351 4362 ft 177 kts 358°
2026-04-27 16:37 60.37325 5.19111 5211 ft 191 kts 351°
2026-04-27 16:38 60.38737 5.18647 5766 ft 224 kts 350°
2026-04-27 16:38 60.40322 5.18125 5795 ft 235 kts 354°
2026-04-27 16:38 60.41905 5.17723 5775 ft 231 kts 335°
2026-04-27 16:38 60.43034 5.15524 5783 ft 226 kts 293°
2026-04-27 16:39 60.43157 5.12473 5960 ft 222 kts 253°
2026-04-27 16:39 60.42682 5.09497 6653 ft 227 kts 251°
2026-04-27 16:39 60.42170 5.06433 7282 ft 232 kts 251°
2026-04-27 16:39 60.41649 5.03320 7858 ft 235 kts 251°
2026-04-27 16:40 60.41130 5.00230 8420 ft 236 kts 251°
2026-04-27 16:40 60.40598 4.97083 8987 ft 238 kts 249°
2026-04-27 16:40 60.39735 4.94274 9514 ft 240 kts 221°
2026-04-27 16:40 60.38251 4.92750 10107 ft 242 kts 190°
2026-04-27 16:41 60.36601 4.92969 10675 ft 245 kts 160°
2026-04-27 16:41 60.35136 4.94711 11274 ft 247 kts 147°
2026-04-27 16:41 60.33734 4.96648 11828 ft 249 kts 145°
2026-04-27 16:41 60.32312 4.98643 12397 ft 251 kts 145°
2026-04-27 16:42 60.30781 5.00359 12946 ft 253 kts 159°
2026-04-27 16:42 60.29122 5.01532 13519 ft 255 kts 161°
2026-04-27 16:42 60.27443 5.02684 14085 ft 258 kts 161°
2026-04-27 16:42 60.25766 5.03833 14642 ft 260 kts 161°
2026-04-27 16:43 60.24043 5.05011 15205 ft 262 kts 161°
2026-04-27 16:43 60.22314 5.06193 15762 ft 264 kts 161°
2026-04-27 16:43 60.20571 5.07383 16319 ft 267 kts 161°
2026-04-27 16:43 60.18811 5.08584 16777 ft 272 kts 161°
2026-04-27 16:44 60.17032 5.09797 16794 ft 274 kts 161°
2026-04-27 16:44 60.15241 5.11016 16802 ft 271 kts 161°
2026-04-27 16:44 60.13450 5.12235 16804 ft 268 kts 161°
2026-04-27 16:44 60.11718 5.13412 17178 ft 268 kts 161°
2026-04-27 16:45 60.09917 5.14636 17777 ft 280 kts 161°
2026-04-27 16:45 60.08063 5.15894 18399 ft 290 kts 161°
2026-04-27 16:45 60.06127 5.17206 19023 ft 300 kts 161°
2026-04-27 16:45 60.04116 5.18567 19650 ft 310 kts 161°
2026-04-27 16:46 60.02071 5.19951 20263 ft 319 kts 161°
2026-04-27 16:46 59.99926 5.21401 20885 ft 328 kts 161°
2026-04-27 16:46 59.97777 5.22852 21497 ft 336 kts 161°
2026-04-27 16:46 59.95540 5.24360 22108 ft 343 kts 161°
2026-04-27 16:47 59.93413 5.26473 22652 ft 349 kts 144°
2026-04-27 16:47 59.91269 5.28734 23212 ft 353 kts 163°
2026-04-27 16:47 59.88834 5.29245 23797 ft 358 kts 185°
2026-04-27 16:47 59.86421 5.27969 24365 ft 364 kts 205°
2026-04-27 16:48 59.84050 5.26277 24918 ft 369 kts 188°
2026-04-27 16:48 59.81508 5.26203 25524 ft 372 kts 178°
2026-04-27 16:48 59.78916 5.26072 26165 ft 374 kts 182°
2026-04-27 16:49 59.73721 5.25568 27354 ft 380 kts 182°